This demonstration page uses our WeatherBlox Daily Observations layout. Learn more.

Left ArrowRight Arrow

Hourly Observations for January 8, 2019

Temp ( °F °C ) Dew Point ( °F °C ) Humidity (%) Winds ( mph kmh ) Pressure ( in mb ) Visibility ( mi km ) Precip ( " mm )
12:53 am 00:53 Clear 51 10.6 46 7.8 83 83 Calm 30.14 1021 10 16 0.00 0.00
1:53 am 01:53 Mostly Clear 51 10.6 47 8.3 86 86 S 3 6 30.16 1021 10 16 0.00 0.00
2:53 am 02:53 Clear 51 10.6 47 8.3 86 86 Calm 30.16 1021 10 16 0.00 0.00
3:53 am 03:53 Clear 49 9.4 47 8.3 93 93 Calm 30.15 1021 10 16 0.00 0.00
4:53 am 04:53 Clear 48 8.9 47 8.3 96 96 Calm 30.14 1021 10 16 0.00 0.00
5:53 am 05:53 Mostly Cloudy 49 9.4 47 8.3 93 93 Calm 30.13 1020 10 16 0.00 0.00
6:28 am 06:28 Mostly Cloudy 49 9.4 47 8.3 93 93 WSW 3 6 30.18 1022 10 16 0.00 0.00
6:53 am 06:53 Cloudy 50 10 47 8.3 89 89 SSW 3 6 30.14 1021 10 16 0.00 0.00
7:53 am 07:53 Cloudy 50 10 48 8.9 93 93 SSW 6 9 30.15 1021 10 16 0.00 0.03
8:53 am 08:53 Cloudy 51 10.6 49 9.4 92 92 SW 6 9 30.16 1021 10 16 0.00 0.03
9:10 am 09:10 Cloudy 51 10.6 49 9.4 92 92 SW 6 9 30.18 1022 10 16 0.00 0.00
9:53 am 09:53 Cloudy 52 11.1 50 10 93 93 SW 8 13 30.16 1022 10 16 0.00 0.00
10:20 am 10:20 Cloudy 53 11.7 50 10 89 89 SW 8 13 30.18 1022 10 16 0.00 0.00
10:53 am 10:53 Cloudy 56 13.3 52 11.1 87 87 SW 7 11 30.16 1021 10 16 0.00 0.00
11:17 am 11:17 Cloudy 58 14.4 53 11.7 84 84 SSW 6 9 30.15 1021 10 16 0.00 0.00
11:53 am 11:53 Cloudy 61 16.1 55 12.8 81 81 W 8 13 30.12 1020 10 16 0.00 0.00
12:53 pm 12:53 Cloudy 62 16.7 56 13.3 80 80 WSW 10 17 30.09 1019 10 16 0.00 0.00
1:53 pm 13:53 Cloudy 62 16.7 55 12.8 78 78 W 9 15 30.08 1019 10 16 0.00 0.00
2:53 pm 14:53 Cloudy 64 17.8 54 12.2 70 70 W 9 15 30.07 1018 10 16 0.00 0.00
3:53 pm 15:53 Sunny 65 18.3 52 11.1 63 63 W 8 13 30.06 1018 10 16 0.00 0.00
4:53 pm 16:53 Partly Cloudy 64 17.8 52 11.1 65 65 WSW 7 11 30.06 1018 10 16 0.00 0.00
5:53 pm 17:53 Clear 63 17.2 52 11.1 68 68 WSW 6 9 30.07 1018 10 16 0.00 0.00
6:53 pm 18:53 Clear 61 16.1 52 11.1 72 72 WSW 6 9 30.07 1018 10 16 0.00 0.00
7:53 pm 19:53 Clear 59 15 52 11.1 78 78 SW 5 7 30.06 1018 10 16 0.00 0.00
8:53 pm 20:53 Clear 58 14.4 51 10.6 78 78 SW 5 7 30.06 1018 10 16 0.00 0.00
9:53 pm 21:53 Clear 57 13.9 50 10 78 78 WSW 7 11 30.06 1018 10 16 0.00 0.00
10:53 pm 22:53 Clear 57 13.9 50 10 78 78 W 8 13 30.07 1018 10 16 0.00 0.00
11:53 pm 23:53 Clear 57 13.9 48 8.9 72 72 WNW 20 31 30.07 1018 10 16 0.00 0.00

Powered by AerisWeather